Sacramento, CA

11:28 AM PDT on August 23, 2017 (GMT -0700)
Sacramento Executive

Weather History for KSAC - October, 2011

Change the Weather History Date:

Monday, October 3, 2011

  Actual Average Record
Temperature  
Mean Temperature 60 °F -  
Max Temperature 69 °F 83 °F 99 °F (1987)
Min Temperature 50 °F 53 °F 42 °F (1954)
Degree Days  
Heating Degree Days 5    
Month to date heating degree days 5  
Cooling Degree Days 0    
Month to date cooling degree days 3  
Year to date cooling degree days 1103  
Growing Degree Days 10 (Base 50)    
Moisture  
Dew Point 52 °F    
Average Humidity 72    
Maximum Humidity 89    
Minimum Humidity 55    
Precipitation  
Precipitation T in 0.02 in 0.09 in (2015)
Month to date precipitation T 0.05  
Year to date precipitation 14.61 12.29  
Since 1 July precipitation 0.01  
Sea Level Pressure  
Sea Level Pressure 29.92 in    
Wind  
Wind Speed 5 mph (SSW)    
Max Wind Speed 16 mph    
Max Gust Speed 22 mph    
Visibility 10 miles    
Events Rain    
T = Trace of Precipitation, MM = Missing Value Source: NWS Daily Summary

Daily Weather History Graph

Daily Weather History Graph

Search for Another Location

Airport or City:

Trip Planner

Search our weather history database for the weather conditions in past years. The results will help you decide how hot, cold, wet, or windy it might be!

Date:

Astronomy

Oct. 03, 2011 Rise Set
Actual Time 7:03 AM PDT 6:45 PM PDT
Civil Twilight 6:37 AM PDT 7:12 PM PDT
Nautical Twilight 6:06 AM PDT 7:43 PM PDT
Astronomical Twilight 5:35 AM PDT 8:13 PM PDT
Moon 2:01 PM PDT (10/3) 11:58 PM PDT (10/3)
Length of Visible Light 12h 35m
Length of Day
11h 42m
Waxing Crescent, 46% of the Moon is Illuminated
Oct 3
Waxing Crescent
Oct 3
First Quarter
Oct 11
Full
Oct 19
Last Quarter
Oct 26
New

Hourly Weather History & Observations

Time (PDT) Temp. Dew Point Humidity Pressure Visibility Wind Dir Wind Speed Gust Speed Precip Events Conditions
12:53 AM 55.9 °F 51.1 °F 84% 29.96 in 10.0 mi SSW 4.6 mph - N/A   Clear
1:53 AM 54.0 °F 50.0 °F 86% 29.96 in 10.0 mi SSE 3.5 mph - N/A   Clear
2:53 AM 55.0 °F 50.0 °F 83% 29.96 in 10.0 mi SE 4.6 mph - N/A   Clear
3:53 AM 54.0 °F 50.0 °F 86% 29.95 in 10.0 mi SSW 4.6 mph - N/A   Clear
4:53 AM 53.1 °F 48.9 °F 86% 29.95 in 10.0 mi SSW 4.6 mph - N/A   Clear
5:53 AM 52.0 °F 48.9 °F 89% 29.95 in 10.0 mi Calm Calm - N/A   Clear
6:53 AM 51.1 °F 48.9 °F 92% 29.93 in 10.0 mi East 4.6 mph - N/A   Clear
7:53 AM 53.1 °F 50.0 °F 89% 29.94 in 10.0 mi SE 3.5 mph - N/A   Clear
8:53 AM 57.9 °F 53.1 °F 84% 29.94 in 10.0 mi South 5.8 mph - N/A   Clear
9:53 AM 62.1 °F 54.0 °F 75% 29.94 in 10.0 mi SSW 9.2 mph - N/A   Clear
10:53 AM 66.2 °F 53.6 °F 64% 29.93 in 10.0 mi South 8.1 mph - N/A   Clear
11:53 AM 68.0 °F 54.0 °F 61% 29.92 in 10.0 mi SSW 5.8 mph - N/A   Clear
12:53 PM 68.0 °F 53.1 °F 59% 29.91 in 10.0 mi SW 11.5 mph - N/A   Clear
1:53 PM 68.0 °F 52.0 °F 56% 29.89 in 10.0 mi SSW 4.6 mph - N/A   Clear
2:53 PM 68.0 °F 54.0 °F 61% 29.89 in 10.0 mi SW 10.4 mph - N/A   Clear
3:53 PM 64.9 °F 53.1 °F 65% 29.90 in 10.0 mi WSW 13.8 mph - N/A   Overcast
4:53 PM 62.1 °F 55.0 °F 78% 29.89 in 10.0 mi West 10.4 mph - 0.00 in Rain Light Rain
5:53 PM 60.8 °F 53.6 °F 77% 29.89 in 10.0 mi West 4.6 mph - N/A   Partly Cloudy
6:53 PM 60.1 °F 52.0 °F 75% 29.90 in 10.0 mi Variable 3.5 mph - 0.00 in Rain Light Rain
7:53 PM 59.0 °F 53.1 °F 81% 29.88 in 10.0 mi NW 5.8 mph - 0.02 in   Overcast
8:53 PM 59.0 °F 52.0 °F 78% 29.89 in 10.0 mi ESE 3.5 mph - N/A   Overcast
9:53 PM 59.0 °F 53.1 °F 81% 29.90 in 10.0 mi NNE 3.5 mph - N/A   Overcast
10:53 PM 57.9 °F 52.0 °F 81% 29.89 in 10.0 mi Calm Calm - 0.00 in Rain Light Rain
11:53 PM 59.0 °F 52.0 °F 78% 29.90 in 10.0 mi Calm Calm - 0.00 in   Overcast